Location: Chaumontel
(49.1247°N, 2.4324°E)
Time: 08:14:14
(UTC+00:00)

Tiangong - Visible Passes

Search period start: 21 May 2026 00:00
Search period end: 31 May 2026 00:00
Orbit: 381 x 391 km, 41.5° (Epoch: 20 May)

Date Brightness Start Highest point End Pass type
(mag) Time Alt. Az. Time Alt. Az. Time Alt. Az.
21 May -0.5 20:58:40 10° SW 21:00:57 18° S 21:01:17 18° SSE visible
22 May -0.4 21:35:32 10° SW 21:37:14 19° SSW 21:37:14 19° SSW visible
23 May -0.6 20:36:21 10° SW 20:38:47 20° S 20:40:43 13° SE visible
23 May 0.6 22:12:52 10° SW 22:12:56 10° SW 22:12:56 10° SW visible
24 May -0.5 21:13:25 10° SW 21:15:49 19° S 21:16:16 19° S visible
25 May -0.5 20:14:04 10° SW 20:16:33 21° S 20:19:03 10° SE visible
25 May 0.3 21:51:05 10° SW 21:51:43 12° SW 21:51:43 12° SW visible
26 May -0.2 20:51:22 10° SW 20:53:31 17° SSW 20:54:54 13° SSE visible
28 May 0.2 20:29:28 10° SW 20:31:05 13° SSW 20:32:41 10° SSE visible
